| time (UTC) | temp F | wind direction | speed MPH | gust MPH | rain 1hr in | rain 24hr in | rain mn in | humidity % | barometer mb |
| 20260505224533 | 48 | 245 | 26.0 | 40.0 | 0.03 | 0.09 | 0.09 | 97 | 1006.2 |
| 20260505223036 | 48 | 245 | 24.0 | 38.0 | 0.04 | 0.09 | 0.09 | 96 | 1006.3 |
| 20260505221532 | 48 | 245 | 24.0 | 36.0 | 0.07 | 0.08 | 0.08 | 96 | 1005.9 |
| 20260505220032 | 48 | 232 | 23.0 | 34.0 | 0.08 | 0.08 | 0.08 | 96 | 1006.4 |
| 20260505214530 | 49 | 245 | 27.0 | 37.0 | 0.06 | 0.06 | 0.06 | 96 | 1006.7 |
| 20260505213034 | 50 | 245 | 26.0 | 37.0 | 0.05 | 0.05 | 0.05 | 94 | 1006.0 |
| 20260505211535 | 54 | 273 | 21.0 | 30.0 | 0.01 | 0.01 | 0.01 | 81 | 1005.5 |
| 20260505210034 | 61 | 245 | 14.0 | 23.0 | 0.00 | 0.00 | 0.00 | 54 | 1004.8 |
| 20260505204533 | 61 | 245 | 15.0 | 30.0 | 0.00 | 0.00 | 0.00 | 54 | 1004.8 |
| 20260505203036 | 61 | 169 | 17.0 | 26.0 | 0.00 | 0.00 | 0.00 | 56 | 1004.5 |
| 20260505201537 | 60 | 162 | 20.0 | 29.0 | 0.00 | 0.00 | 0.00 | 56 | 1004.3 |
| 20260505200032 | 60 | 245 | 15.0 | 27.0 | 0.00 | 0.00 | 0.00 | 58 | 1004.5 |
| 20260505194532 | 60 | 245 | 18.0 | 29.0 | 0.00 | 0.00 | 0.00 | 58 | 1004.5 |
| 20260505193030 | 61 | 166 | 17.0 | 27.0 | 0.00 | 0.00 | 0.00 | 57 | 1004.6 |
| 20260505191529 | 62 | 245 | 16.0 | 27.0 | 0.00 | 0.00 | 0.00 | 56 | 1004.6 |
| 20260505190036 | 63 | 152 | 13.0 | 28.0 | 0.00 | 0.00 | 0.00 | 55 | 1005.2 |
| 20260505184530 | 63 | 156 | 14.0 | 24.0 | 0.00 | 0.00 | 0.00 | 53 | 1005.3 |
| 20260505183042 | 62 | 166 | 10.0 | 21.0 | 0.00 | 0.00 | 0.00 | 58 | 1005.5 |
| 20260505181534 | 60 | 157 | 14.0 | 23.0 | 0.00 | 0.00 | 0.00 | 58 | 1005.5 |
| 20260505180034 | 60 | 171 | 18.0 | 25.0 | 0.00 | 0.00 | 0.00 | 59 | 1005.5 |
| 20260505174531 | 60 | 245 | 19.0 | 28.0 | 0.00 | 0.00 | 0.00 | 59 | 1005.6 |
| 20260505173039 | 59 | 172 | 14.0 | 31.0 | 0.00 | 0.00 | 0.00 | 60 | 1005.9 |
| 20260505171542 | 60 | 170 | 17.0 | 26.0 | 0.00 | 0.00 | 0.00 | 59 | 1006.0 |
| 20260505170030 | 59 | 245 | 18.0 | 25.0 | 0.00 | 0.00 | 0.00 | 61 | 1006.0 |
| 20260505164532 | 58 | 165 | 16.0 | 24.0 | 0.00 | 0.00 | 0.00 | 64 | 1006.3 |
| 20260505163032 | 57 | 163 | 14.0 | 25.0 | 0.00 | 0.00 | 0.00 | 67 | 1006.7 |
| 20260505161530 | 56 | 135 | 14.0 | 25.0 | 0.00 | 0.00 | 0.00 | 67 | 1006.8 |
| 20260505153034 | 55 | 245 | 17.0 | 28.0 | 0.00 | 0.00 | 0.00 | 68 | 1007.0 |
| 20260505151536 | 53 | 157 | 15.0 | 24.0 | 0.00 | 0.00 | 0.00 | 70 | 1007.0 |
| 20260505124530 | 50 | 245 | 17.0 | 25.0 | 0.00 | 0.00 | 0.00 | 67 | 1006.4 |
| 20260505123032 | 51 | 156 | 19.0 | 27.0 | 0.00 | 0.00 | 0.00 | 68 | 1006.6 |
| 20260505121537 | 50 | 152 | 18.0 | 27.0 | 0.00 | 0.00 | 0.00 | 69 | 1006.8 |
| 20260505120055 | 49 | 245 | 17.0 | 28.0 | 0.00 | 0.00 | 0.00 | 69 | 1007.0 |
| 20260505114530 | 49 | 245 | 18.0 | 27.0 | 0.00 | 0.00 | 0.00 | 69 | 1007.0 |
| 20260505113029 | 48 | 183 | 16.0 | 29.0 | 0.00 | 0.00 | 0.00 | 70 | 1007.2 |
| 20260505111531 | 48 | 245 | 16.0 | 25.0 | 0.00 | 0.00 | 0.00 | 70 | 1007.3 |
| 20260505101530 | 47 | 187 | 16.0 | 27.0 | 0.00 | 0.00 | 0.00 | 70 | 1007.0 |
| 20260505100032 | 47 | 181 | 16.0 | 25.0 | 0.00 | 0.00 | 0.00 | 69 | 1006.9 |
| 20260505094532 | 47 | 203 | 15.0 | 26.0 | 0.00 | 0.00 | 0.00 | 69 | 1007.0 |
| 20260505093037 | 47 | 188 | 19.0 | 27.0 | 0.00 | 0.00 | 0.00 | 68 | 1007.0 |
| 20260505091531 | 47 | 245 | 19.0 | 29.0 | 0.00 | 0.00 | 0.00 | 67 | 1006.9 |
| 20260505090041 | 48 | 245 | 21.0 | 31.0 | 0.00 | 0.00 | 0.00 | 66 | 1006.9 |
| 20260505084532 | 47 | 174 | 20.0 | 30.0 | 0.00 | 0.00 | 0.00 | 66 | 1007.0 |
| 20260505083030 | 47 | 203 | 19.0 | 34.0 | 0.00 | 0.00 | 0.00 | 65 | 1007.0 |
| 20260505081536 | 47 | 193 | 20.0 | 32.0 | 0.00 | 0.00 | 0.00 | 64 | 1006.9 |
| 20260505080037 | 47 | 187 | 18.0 | 30.0 | 0.00 | 0.00 | 0.00 | 64 | 1007.0 |
| 20260505074530 | 47 | 245 | 17.0 | 27.0 | 0.00 | 0.00 | 0.00 | 64 | 1007.2 |
| 20260505073045 | 47 | 179 | 16.0 | 29.0 | 0.00 | 0.00 | 0.00 | 65 | 1007.2 |
| 20260505071531 | 46 | 147 | 18.0 | 24.0 | 0.00 | 0.00 | 0.00 | 66 | 1007.1 |
| 20260505070030 | 46 | 159 | 17.0 | 25.0 | 0.00 | 0.00 | 0.00 | 67 | 1007.1 |
| 20260505064540 | 46 | 163 | 18.0 | 24.0 | 0.00 | 0.00 | 0.00 | 68 | 1007.2 |
| 20260505063031 | 46 | 152 | 17.0 | 25.0 | 0.00 | 0.00 | 0.00 | 68 | 1007.2 |
| 20260505061545 | 46 | 181 | 17.0 | 25.0 | 0.00 | 0.00 | 0.00 | 66 | 1007.2 |
| 20260505060033 | 46 | 148 | 17.0 | 25.0 | 0.00 | 0.00 | 0.00 | 67 | 1007.1 |
| 20260505054552 | 46 | 245 | 15.0 | 21.0 | 0.00 | 0.00 | 0.00 | 67 | 1007.2 |
| 20260505053034 | 47 | 187 | 17.0 | 25.0 | 0.00 | 0.00 | 0.00 | 66 | 1007.2 |
| 20260505051534 | 47 | 188 | 16.0 | 25.0 | 0.00 | 0.00 | 0.00 | 66 | 1007.2 |
| 20260505041532 | 46 | 181 | 13.0 | 21.0 | 0.00 | 0.00 | 0.00 | 67 | 1007.1 |
| 20260505040032 | 46 | 183 | 13.0 | 20.0 | 0.00 | 0.00 | 0.00 | 66 | 1007.0 |
| 20260505034532 | 46 | 194 | 12.0 | 18.0 | 0.00 | 0.00 | 0.00 | 67 | 1007.0 |
| 20260505033033 | 46 | 245 | 13.0 | 20.0 | 0.00 | 0.00 | 0.00 | 67 | 1006.9 |
| 20260505031542 | 46 | 188 | 12.0 | 18.0 | 0.00 | 0.00 | 0.00 | 68 | 1007.0 |
| 20260505030033 | 46 | 245 | 12.0 | 18.0 | 0.00 | 0.00 | 0.00 | 70 | 1007.0 |
| 20260505024538 | 46 | 180 | 11.0 | 17.0 | 0.00 | 0.00 | 0.00 | 71 | 1007.2 |
| 20260505023034 | 46 | 245 | 11.0 | 17.0 | 0.00 | 0.00 | 0.00 | 71 | 1007.2 |
| 20260505021533 | 45 | 245 | 11.0 | 15.0 | 0.00 | 0.00 | 0.00 | 72 | 1007.4 |
| 20260505020034 | 45 | 205 | 10.0 | 20.0 | 0.00 | 0.00 | 0.00 | 72 | 1007.3 |
| 20260505014536 | 45 | 189 | 11.0 | 18.0 | 0.00 | 0.00 | 0.00 | 73 | 1007.4 |
| 20260505013029 | 45 | 208 | 11.0 | 18.0 | 0.00 | 0.00 | 0.00 | 74 | 1007.2 |
| 20260505011536 | 44 | 182 | 10.0 | 18.0 | 0.00 | 0.00 | 0.00 | 76 | 1007.0 |
| 20260505010032 | 44 | 179 | 10.0 | 15.0 | 0.00 | 0.00 | 0.00 | 77 | 1006.9 |
| 20260505004544 | 44 | 166 | 11.0 | 17.0 | 0.00 | 0.00 | 0.00 | 78 | 1006.5 |
| 20260505003032 | 43 | 212 | 11.0 | 18.0 | 0.00 | 0.00 | 0.00 | 80 | 1006.1 |
| 20260505001532 | 43 | 204 | 10.0 | 17.0 | 0.00 | 0.00 | 0.00 | 82 | 1005.8 |
| 20260505000047 | 43 | 185 | 10.0 | 15.0 | 0.00 | 0.00 | 0.00 | 83 | 1005.7 |
| 20260504234531 | 43 | 245 | 9.0 | 14.0 | 0.00 | 0.00 | 0.00 | 83 | 1005.2 |
| 20260504233030 | 43 | 245 | 12.0 | 17.0 | 0.00 | 0.00 | 0.00 | 83 | 1005.1 |
| 20260504231531 | 43 | 217 | 11.0 | 15.0 | 0.00 | 0.00 | 0.00 | 83 | 1005.0 |
| 20260504230037 | 44 | 245 | 9.0 | 15.0 | 0.00 | 0.00 | 0.00 | 81 | 1004.9 |